User: anonymous   Login
Location: Fauquembergues
(50.6005°N, 2.0987°E)
Time: 22:32:17
(UTC+00:00)
Language:

Cosmos 2360 - Orbit

View from above orbital plane
View from above orbital plane
View from above satellite
View from above satellite

Ground track
Ground track

The orbit data is extracted from the following two-line orbital elements,

1 25406U 98045A   20275.48175138 +.00000063 +00000-0 +60450-4 0  9994
2 25406 070.8139 002.0035 0009017 214.3602 145.6936 14.12348724143662
Epoch (UTC): 01 October 2020 11:33:43
Eccentricity: 0.0009017
inclination: 70.8139°
perigee height: 845 km
apogee height: 858 km
right ascension of ascending node: 2.0035°
argument of perigee: 214.3602°
revolutions per day: 14.12348724
mean anomaly at epoch: 145.6936°
orbit number at epoch: 14366

The dashed part of the orbit path shows where the satellite is in the earth's shadow,  

DLR